Regional Weather Roundup
Issued by NWS Sterling, VA

Home | Current Version | Previous Version | Graphics & Text | Print | Product List | Glossary On
Versions: 1 2 3 4 5 6 7 8 9 10 11 12 13 14 15 16 17 18 19 20 21 22 23 24 25 26 27 28 29 30 31 32 33 34 35 36 37 38 39 40 41 42 43 44 45 46 47 48 49 50
000
ASUS41 KLWX 231710
RWRLWX

REGIONAL WEATHER ROUNDUP
NATIONAL WEATHER SERVICE BALTIMORE MD/WASHINGTON DC
100 PM EDT THU MAR 23 2017

Note: "FAIR" indicates few or no clouds below 12,000 feet
with no significant weather and/or obstructions to visibility.
 TC=TEMPERATURE CELSIUS

 * =Non NWS site. Station does not report precipitation (e.g. rain,
    snow, etc.), thunder, or fog.

DCZ001-MDZ009-015-VAZ040>042-051-053>054-231800-
WASHINGTON METRO

CITY           SKY/WX    TMP DP  RH WIND       PRES   REMARKS
WASHINGTON NAT MOSUNNY   40   4  22 VRB3      30.64F
DULLES         SUNNY     41   4  21 NW7       30.62F
ANDREWS AFB    SUNNY     40   5  23 CALM      30.62F
FT BELVOIR     SUNNY     41   5  22 VRB3      30.64F
QUANTICO       MOSUNNY   41   7  24 CALM      30.66F
COLLEGE PARK*  SUNNY     37   5  25 CALM      30.63F
LEESBURG*      SUNNY     41  10  28 W3        30.63F
MANASSAS*      SUNNY     41   8  25 S6        30.63F
GAITHERSBURG*  SUNNY     39   5  24 SE3       30.65F

$$

MDZ006>007-011-014-231800-
BALTIMORE METRO

CITY           SKY/WX    TMP DP  RH WIND       PRES   REMARKS
BWI AIRPORT    MOSUNNY   40   3  21 CALM      30.63F
MD SCIENCE CTR   N/A     42   7  23 MISG      30.66F
MARTIN STATE   SUNNY     39  16  38 SE9       30.66F
ANNAPOLIS      SUNNY     36  16  44 SE12      30.65F WCI  28
FORT MEADE*    SUNNY     39   5  24 N6        30.65F

$$

MDZ012-015-019>023-231800-
MARYLAND EASTERN SHORE

CITY           SKY/WX    TMP DP  RH WIND       PRES   REMARKS
OCEAN CITY     SUNNY     36  15  42 E10       30.64F WCI  28
SALISBURY      SUNNY    N/A N/A N/A N3        30.62F
BAY BRIDGE AP* SUNNY     36   3  25 W6        30.66F
CAMBRIDGE*     SUNNY     37   5  25 VRB7      30.64F
EASTON*        SUNNY     39   9  28 NW7       30.67F

$$

MDZ017>025-231800-
SOUTHERN MARYLAND

CITY           SKY/WX    TMP DP  RH WIND       PRES   REMARKS
PATUXENT RIVER MOSUNNY   38  11  32 VRB5      30.65F
ST INIGOES     NOT AVBL
LEONARDTOWN*   SUNNY     36  10  35 S3        30.65F

$$

MDZ003>005-231800-
NORTH CENTRAL MARYLAND

CITY           SKY/WX    TMP DP  RH WIND       PRES   REMARKS
FREDERICK*     SUNNY     39  10  30 W6        30.66F
HAGERSTOWN APT SUNNY     38   4  24 SW9       30.59F
WESTMINSTER*   SUNNY     37   9  30 E5        30.59F

$$

MDZ501>502-231800-
WESTERN MARYLAND

CITY           SKY/WX    TMP DP  RH WIND       PRES   REMARKS
OAKLAND*       SUNNY     36   9  32 SE5       30.44S
CUMBERLAND*    SUNNY     41   1  19 CALM      30.61F

$$

VAZ025>031-231800-
SHENANDOAH VALLEY

CITY           SKY/WX    TMP DP  RH WIND       PRES   REMARKS
WINCHESTER*    SUNNY     37   9  30 CALM      30.59F
FRONT ROYAL*   SUNNY     39  10  30 CALM      30.58F
LURAY*         SUNNY     43  16  33 S5        30.57F
NEW MARKET*    SUNNY     41  11  29 CALM      30.56F
STAUNTON*      SUNNY     42  13  31 S9        30.57F
WAYNESBORO*    SUNNY     41  13  31 SE6       30.54F

$$

WVZ021-048>050-054>055-231800-
EASTERN WEST VIRGINIA PANHANDLE

CITY           SKY/WX    TMP DP  RH WIND       PRES   REMARKS
MARTINSBURG    SUNNY     40   3  21 CALM      30.60F
PETERSBURG*    SUNNY     44  17  33 SE6       30.55F

$$

VAZ036>039-050-231800-
CENTRAL FOOTHILLS

CITY           SKY/WX    TMP DP  RH WIND       PRES   REMARKS
CHARLOTTESVILL SUNNY     44   9  23 VRB3      30.60F
CULPEPER*      SUNNY     43  13  30 CALM      30.63F
ORANGE*        SUNNY     43  12  28 W5        30.62F
GORDONSVILLE*  SUNNY     43  11  27 W3        30.60F
WARRENTON*     SUNNY     43  -3  14 NW5       30.62F

$$

VAZ055>057-231800-
NORTH AND CENTRAL PIEDMONT

CITY           SKY/WX    TMP DP  RH WIND       PRES   REMARKS
FREDERICKSBRG* SUNNY     41  11  29 N3        30.63F
STAFFORD*      SUNNY     40  10  28 E5        30.67F

$$

NCZ024-NYZ072-PAZ021-071-VAZ022-071-231800-
OTHER REGIONAL OBSERVATIONS

CITY           SKY/WX    TMP DP  RH WIND       PRES   REMARKS
NEW YORK CITY  SUNNY     37  -2  19 MISG      30.59F
PHILADELPHIA   MOSUNNY   39  10  30 SE6       30.62F
PITTSBURGH     PTSUNNY   39   5  24 SE10      30.52F
ROANOKE        MOSUNNY   44  11  26 SE12      30.56F
RICHMOND       MOSUNNY   42  11  28 S3        30.63F
RALEIGH        MOSUNNY   50  18  28 VRB6      30.59F

$$

ANZ530>537-231800-
MARINE OBSERVATIONS

STATION/POSITION TIME  TEMP    WIND        PRES
                       AIR SEA DIR/SP/G
                 (UTC) (F)     (DEG/KT/KT) (MB)
THOMAS PT LIGHT  1700   33 43  110/  4/  5   N/A
BALT KEY BRIDGE  1648   35      10/  3/  4 1037.8F
COVE POINT       1648   32      20/  6/  8 1038.7F
LEWISETTA        1648   33 47  130/  6/  8 1038.2F
SOLOMONS ISLAND  1648   34 45  120/  6/  8   N/A
PINEY POINT      1648          200/  7/  9   N/A

$$




USA.gov is the U.S. government's official web portal to all federal, state and local government web resources and services.